Skip Page Navigation
NASA JPL Caltech
NASA Logo - Jet Propulsion Laboratory + View the NASA Portal
+ Center for Near-Earth Object Studies
JPL Home Earth Solar System Stars & Galaxies Technology
JPL Solar System Dynamics
BODIES ORBITS EPHEMERIDES TOOLS PHYSICAL DATA DISCOVERY FAQ SITE MAP
IMPORTANT: The SSD Announcement email list is now available. Major changes are coming in the near future, including possible hostname and/or URL changes. To be notified of such changes, subscribe to this email list.

Please visit this page for more details.


JPL Small-Body Database Browser
Search: [ help ]  
35113 (1992 CR2)
Classification: Main-belt Asteroid          SPK-ID: 2035113
Ephemeris | Orbit Diagram | Orbital Elements | Mission Design | Physical Parameters | Discovery Circumstances ]

[ show orbit diagram ]
Orbital Elements at Epoch 2458600.5 (2019-Apr-27.0) TDB
Reference: JPL 26 (heliocentric ecliptic J2000)
 Element Value Uncertainty (1-sigma)   Units 
e .1066021892182815 2.5829e-08  
a 2.191362724743874 6.0639e-09 au
q 1.957758660914838 5.5563e-08 au
i 4.082417930521618 3.7495e-06 deg
node 201.7173167288764 4.8543e-05 deg
peri 55.58445589148725 5.2828e-05 deg
M 18.21055567840976 2.0616e-05 deg
tp 2458540.563617235666
(2019-Feb-26.06361724)
6.7844e-05 TDB
period 1184.867621625731
3.24
4.9181e-06
1.347e-08
d
yr
n .3038314098802463 1.2611e-09 deg/d
Q 2.424966788572909 6.7103e-09 au
  Orbit Determination Parameters
   # obs. used (total)      1725  
   data-arc span      10093 days (27.63 yr)  
   first obs. used      1992-01-30  
   last obs. used      2019-09-18  
   planetary ephem.      DE431  
   SB-pert. ephem.      SB431-N16  
   condition code      0  
   norm. resid. RMS      .52449  
   source      ORB  
   producer      Otto Matic  
   solution date      2019-Sep-24 01:55:15  

Additional Information
 Earth MOID = .946105 au 
 Jupiter MOID = 2.60728 au 
 T_jup = 3.662 
[ show covariance matrix ]

Ephemeris | Orbit Diagram | Orbital Elements | Mission Design | Physical Parameters | Discovery Circumstances ]

Physical Parameter Table
Parameter Symbol Value Units Sigma Reference Notes
absolute magnitude H 14.6   n/a MPO436010  
diameter diameter 3.147 km 0.728 urn:nasa:pds:neowise_diameters_albedos::2.0[mainbelt] (http://adsabs.harvard.edu/abs/2016AJ....152...63N)  
geometric albedo albedo 0.258   0.134 urn:nasa:pds:neowise_diameters_albedos::2.0[mainbelt] (http://adsabs.harvard.edu/abs/2016AJ....152...63N)  

35113 (1992 CR2)          Discovered 1992-Feb-02 by Elst, E. W. at La Silla
Reference: 20020227/Numbers.arcLast Updated: 2004-04-19

Alternate Designations
 1992 CR2 = 1997 WZ34 
Ephemeris | Orbit Diagram | Orbital Elements | Mission Design | Physical Parameters | Discovery Circumstances ]
ABOUT SSD CREDITS/AWARDS PRIVACY/COPYRIGHT GLOSSARY LINKS
FirstGov 2019-Oct-21 16:45 UT
(server date/time)  
NASA Home Page
Site Manager:   Ryan S. Park
Webmaster  Alan B. Chamberlin